Regional Weather Roundup
Issued by NWS Green Bay, WI

Home | Current Version | Previous Version | Text Only | Print | Product List | Glossary On
Versions: 1 2 3 4 5 6 7 8 9 10 11 12 13 14 15 16 17 18 19 20 21 22 23 24 25 26 27 28 29 30 31 32 33 34 35 36 37 38 39 40 41 42 43 44 45 46 47 48 49 50
000
ASUS43 KGRB 280011
RWRGRB

NORTH-CENTRAL AND NORTHEAST WISCONSIN REGIONAL WEATHER ROUNDUP
NATIONAL WEATHER SERVICE GREEN BAY WI
700 PM CDT WED MAY 27 2015

WIZ005-009-010>012-018-019-280100-
NORTH CENTRAL WISCONSIN

CITY           SKY/WX    TMP DP  RH WIND       PRES   REMARKS
IRONWOOD       CLOUDY    64  57  77 S5        29.92F
MANITOWISH WTR CLOUDY    66  53  61 CALM      29.97R
ARBOR VITAE    CLOUDY    62  56  82 CALM      29.98R
EAGLE RIVER    PTSUNNY   64  53  65 CALM      29.97R
LAND O LAKES   PTSUNNY   70  52  53 W7        29.98R
RHINELANDER    LGT RAIN  60  57  89 SW12      29.99R
PHILLIPS       MOSUNNY   63  57  81 N6        29.98F THUNDER
ANTIGO         SUNNY     69  60  73 W8        30.00R
TOMAHAWK       MOSUNNY   70  56  60 N9        30.00R
MERRILL        MOSUNNY   72  60  65 W8        29.99R
$$

WIZ013-073-280100-
NORTHEAST WISCONSIN

CITY           SKY/WX    TMP DP  RH WIND       PRES   REMARKS
IRON MOUNTAIN  MOSUNNY   75  58  55 VRB3      29.93R
MARINETTE      PTSUNNY   63  54  72 SW6       29.96R
OCONTO         MOSUNNY   66  54  64 SE7       29.98R
$$

WIZ017-030-035>037-045-280100-
CENTRAL WISCONSIN

CITY           SKY/WX    TMP DP  RH WIND       PRES   REMARKS
MEDFORD        MOSUNNY   71  60  68 SW3       30.00R
WAUSAU         SUNNY     73  59  61 W8        29.97R
MOSINEE        MOSUNNY   73  61  64 W8        30.00R
MARSHFIELD     SUNNY     74  58  57 W9        29.99R
WISC RAPIDS    SUNNY     76  56  49 W7        30.00R
STEVENS POINT  SUNNY     73  57  56 W7        30.00R
WAUPACA        SUNNY     77  58  52 SW7       29.99R
SHAWANO        SUNNY     76  59  54 W7        29.98R
CLINTONVILLE   MOSUNNY   75  57  53 W6        29.98R
$$

WIZ038-039-048-051-280100-
FOX VALLEY

CITY           SKY/WX    TMP DP  RH WIND       PRES   REMARKS
NWS GREEN BAY  SUNNY     76  60  57 W10       29.98R
APPLETON       MOSUNNY   73  55  53 W9        29.99R
OSHKOSH        SUNNY     75  58  55 VRB3      29.99R
FOND DU LAC    SUNNY     74  57  55 SW10      30.01R
$$

WIZ022-050-052-280100-
EAST CENTRAL WISCONSIN

CITY           SKY/WX    TMP DP  RH WIND       PRES   REMARKS
STURGEON BAY   MOSUNNY   59  54  82 SW6       30.02S
MANITOWOC      SUNNY     74  59  59 SW7       30.00R
SHEBOYGAN      SUNNY     72  58  61 SW9       30.00R
$$

LMZ563-521-522-541>543-280100-
LAKESHORE

STATION/POSITION TIME  TEMP    WIND        PRES    VSBY  WAVE
                       AIR SEA DIR/SP/G                  HT/PER
                 (UTC) (F)     (DEG/KT/KT) (MB)    (MI)  (FT/S)
SHEBOYGAN LKSHOR 0000   63     180/ 19/ 20 1016.2R
KEWAUNEE LKSHORE 2300   74     270/  9/ 16 1013.9R
ALGOMA MARINA    2308          260/ 12/ 14   N/A
NORTHPORT PIER   2300   65     240/  6/ 15 1013.2R
N MID LAKE BUOY  2350   43 36  180/ 10/ 12 1014.6R         1/ 5
SISTER BAY LKSHO 2318   59     240/ 15/ 17   N/A
CHAMBERS ISLAND  2340   59     170/  4/  9 1013.9F
MENOMINEE LKSHOR 2300           90/  9/ 13 1015.2R
$$



USA.gov is the U.S. government's official web portal to all federal, state and local government web resources and services.